Location: Exeidioux
(45.6312°N, 1.6819°E)
Time: 13:44:21
(UTC+00:00)

Cosmos 2360 Rocket - Pass Details

Date: 03 March 2021
Orbit: 832 x 846 km, 71.0° (Epoch: 16 April)

Event Time Altitude Azimuth Distance (km) Brightness Sun altitude
Rises 18:36:14 0° 187° (S) 3,373 5.4 -10.1°
Reaches altitude 10° 18:38:43 10° 182° (S) 2,445 4.6 -10.5°
Maximum altitude 18:44:06 50° 109° (ESE) 1,065 2.4 -11.5°
Drops below altitude 10° 18:49:33 10° 35° (NE) 2,470 4.3 -12.4°
Sets 18:52:04 0° 31° (NNE) 3,411 5.1 -12.9°
